Date String (YYYY-MM-DD hh:mm:ss) UTC,Instrument flags,absolute air pressure of the measurement (hPa),sample flow rate (lpm),inlet stack bypass flow (lpm),air temperature of the measurement (°C),ambient temperature measured by the external sensor (°C),aerosol sample conditioner tube jacket temperature (°C),OPC LED temperature (°C),internal box temperature (°C),relative humidity of the measurement (%),span deviation,mass concentration of particles derived from Lorenz-Mie calculation of OPC scattering (μg/m³),mass concentration of particles derived from Lorenz-Mie calculation of OPC scattering (μg/m³),mass concentration of particles derived from Lorenz-Mie calculation of OPC scattering (μg/m³)
DateTimeUTC,F1_M11,P_M11,Q1_M11,Q2_M11,T1_M11,T2_M11,T3_M11,T4_M11,T5_M11,U1_M11,ZSPAN_M11,X2_M11,X0_M11,X1_M11
2024-03-02 04:00:00,SystemResetWarning,0821.7,5.00,000.00,024.4,023.4,000.0,032.9,026.2,09.8,0000.0,0002.01,0004.32,0001.24
2024-03-02 04:01:00,SystemResetWarning,0821.7,5.00,000.00,024.4,023.4,000.0,032.9,026.1,09.8,0000.0,0002.00,0004.44,0001.22
2024-03-02 04:02:00,SystemResetWarning,0821.7,5.00,000.00,024.3,023.4,000.0,032.9,026.1,09.8,0000.0,0001.96,0004.34,0001.21
2024-03-02 04:03:00,SystemResetWarning,0821.7,5.00,000.00,024.3,023.3,000.0,032.9,026.1,09.8,0000.0,0001.93,0004.57,0001.19
2024-03-02 04:04:00,SystemResetWarning,0821.7,5.00,000.00,024.3,023.3,000.0,032.9,026.1,09.8,0000.0,0001.95,0004.58,0001.18
2024-03-02 04:05:00,SystemResetWarning,0821.7,5.00,000.00,024.3,023.3,000.0,032.8,026.1,09.8,0000.0,0002.00,0004.17,0001.17
2024-03-02 04:06:00,SystemResetWarning,0821.7,5.00,000.00,024.3,023.3,000.0,032.8,026.1,09.8,0000.0,0001.96,0003.98,0001.17
2024-03-02 04:07:00,SystemResetWarning,0821.7,5.00,000.00,024.3,023.3,000.0,032.8,026.1,09.8,0000.0,0001.97,0004.10,0001.17
2024-03-02 04:08:00,SystemResetWarning,0821.7,5.00,000.00,024.3,023.2,000.0,032.8,026.1,09.7,0000.0,0002.03,0004.92,0001.17
2024-03-02 04:09:00,SystemResetWarning,0821.7,5.00,000.00,024.2,023.2,000.0,032.8,026.1,09.8,0000.0,0002.06,0005.05,0001.18
2024-03-02 04:10:00,SystemResetWarning,0821.7,5.00,000.00,024.2,023.2,000.0,032.8,026.0,09.8,0000.0,0002.07,0005.04,0001.19
2024-03-02 04:11:00,SystemResetWarning,0821.7,5.00,000.00,024.2,023.2,000.0,032.8,026.0,09.7,0000.0,0002.05,0005.03,0001.19
2024-03-02 04:12:00,SystemResetWarning,0821.7,5.00,000.00,024.2,023.2,000.0,032.8,026.0,09.7,0000.0,0002.08,0004.90,0001.20
2024-03-02 04:13:00,SystemResetWarning,0821.7,4.99,000.00,024.2,023.2,000.0,032.7,026.0,09.8,0000.0,0002.08,0004.95,0001.20
2024-03-02 04:14:00,SystemResetWarning,0821.8,5.00,000.00,024.2,023.2,000.0,032.7,026.0,09.8,0000.0,0002.11,0004.88,0001.20
2024-03-02 04:15:00,SystemResetWarning,0821.7,5.00,000.00,024.2,023.2,000.0,032.7,026.0,09.8,0000.0,0002.17,0005.14,0001.21
2024-03-02 04:16:00,SystemResetWarning,0821.8,5.00,000.00,024.2,023.2,000.0,032.7,026.0,09.8,0000.0,0002.16,0005.02,0001.22
2024-03-02 04:17:00,SystemResetWarning,0821.7,5.00,000.00,024.2,023.1,000.0,032.7,025.9,09.8,0000.0,0002.21,0005.21,0001.22
2024-03-02 04:18:00,SystemResetWarning,0821.7,5.00,000.00,024.2,023.1,000.0,032.7,025.9,09.8,0000.0,0002.14,0004.91,0001.23
2024-03-02 04:19:00,SystemResetWarning,0821.7,5.00,000.00,024.1,023.1,000.0,032.7,025.9,09.8,0000.0,0002.09,0004.09,0001.25
2024-03-02 04:20:00,SystemResetWarning,0821.7,5.00,000.00,024.1,023.1,000.0,032.7,025.9,09.8,0000.0,0002.17,0004.25,0001.27
2024-03-02 04:21:00,SystemResetWarning,0821.7,5.00,000.00,024.1,023.1,000.0,032.7,025.9,09.7,0000.0,0002.18,0004.41,0001.27
2024-03-02 04:22:00,SystemResetWarning,0821.7,5.00,000.00,024.1,023.1,000.0,032.6,025.9,09.8,0000.0,0002.16,0004.35,0001.27
2024-03-02 04:23:00,SystemResetWarning,0821.7,5.00,000.00,024.1,023.1,000.0,032.6,025.9,09.7,0000.0,0002.14,0004.37,0001.27
2024-03-02 04:24:00,SystemResetWarning,0821.7,4.99,000.00,024.1,023.1,000.0,032.6,025.9,09.7,0000.0,0002.22,0004.47,0001.28
2024-03-02 04:25:00,SystemResetWarning,0821.7,4.99,000.00,024.1,023.1,000.0,032.6,025.9,09.6,0000.0,0002.25,0004.60,0001.28
2024-03-02 04:26:00,SystemResetWarning,0821.7,5.00,000.00,024.1,023.1,000.0,032.6,025.9,09.6,0000.0,0002.26,0005.04,0001.29
2024-03-02 04:27:00,SystemResetWarning,0821.8,5.00,000.00,024.1,023.1,000.0,032.6,025.8,09.6,0000.0,0002.28,0006.17,0001.30
2024-03-02 04:28:00,SystemResetWarning,0821.8,5.01,000.00,024.0,023.0,000.0,032.6,025.8,09.6,0000.0,0002.25,0006.33,0001.30
2024-03-02 04:29:00,SystemResetWarning,0821.8,5.00,000.00,024.0,023.0,000.0,032.6,025.8,09.7,0000.0,0002.23,0006.39,0001.29
2024-03-02 04:30:00,SystemResetWarning,0821.7,5.00,000.00,024.0,023.0,000.0,032.5,025.7,09.7,0000.0,0002.25,0007.70,0001.29
2024-03-02 04:31:00,SystemResetWarning,0821.7,5.01,000.00,024.0,023.0,000.0,032.5,025.7,09.7,0000.0,0002.24,0007.71,0001.29
2024-03-02 04:32:00,SystemResetWarning,0821.7,5.00,000.00,024.0,023.0,000.0,032.5,025.7,09.7,0000.0,0002.32,0008.01,0001.30
2024-03-02 04:33:00,SystemResetWarning,0821.7,5.00,000.00,024.0,023.0,000.0,032.5,025.7,09.7,0000.0,0002.40,0008.30,0001.32
2024-03-02 04:34:00,SystemResetWarning,0821.7,4.99,000.00,024.0,023.0,000.0,032.5,025.7,09.7,0000.0,0002.40,0008.28,0001.33
2024-03-02 04:35:00,SystemResetWarning,0821.7,4.99,000.00,024.0,023.0,000.0,032.5,025.7,09.7,0000.0,0002.33,0008.21,0001.33
2024-03-02 04:36:00,SystemResetWarning,0821.7,5.02,000.00,023.9,023.0,000.0,032.5,025.7,09.7,0000.0,0002.28,0008.16,0001.31
2024-03-02 04:37:00,SystemResetWarning,0821.6,5.01,000.00,023.9,023.0,000.0,032.5,025.7,09.7,0000.0,0002.28,0007.79,0001.31
2024-03-02 04:38:00,SystemResetWarning,0821.6,4.99,000.00,023.9,023.0,000.0,032.5,025.7,09.6,0000.0,0002.22,0007.30,0001.29
2024-03-02 04:39:00,SystemResetWarning,0821.6,4.99,000.00,023.9,023.0,000.0,032.5,025.7,09.6,0000.0,0002.23,0006.96,0001.28
2024-03-02 04:40:00,SystemResetWarning,0821.6,5.00,000.00,023.9,022.9,000.0,032.5,025.7,09.6,0000.0,0002.28,0007.06,0001.26
2024-03-02 04:41:00,SystemResetWarning,0821.6,5.00,000.00,023.9,022.9,000.0,032.4,025.6,09.6,0000.0,0002.25,0006.06,0001.26
2024-03-02 04:42:00,SystemResetWarning,0821.6,5.00,000.00,023.9,022.9,000.0,032.4,025.6,09.6,0000.0,0002.18,0005.38,0001.24
2024-03-02 04:43:00,SystemResetWarning,0821.7,5.00,000.00,023.9,022.9,000.0,032.4,025.6,09.6,0000.0,0002.13,0005.16,0001.21
2024-03-02 04:44:00,SystemResetWarning,0821.5,5.00,000.00,023.9,022.9,000.0,032.4,025.6,09.6,0000.0,0002.06,0006.12,0001.20
2024-03-02 04:45:00,SystemResetWarning,0821.8,4.99,000.00,023.9,022.9,000.0,032.4,025.6,09.6,0000.0,0002.06,0006.22,0001.19
2024-03-02 04:46:00,SystemResetWarning,0822.0,5.00,000.00,023.8,022.8,000.0,032.4,025.5,09.5,0000.0,0002.08,0006.32,0001.17
2024-03-02 04:47:00,SystemResetWarning,0822.0,4.99,000.00,023.8,022.8,000.0,032.4,025.5,09.4,0000.0,0002.04,0007.01,0001.16
2024-03-02 04:48:00,SystemResetWarning,0822.0,4.99,000.00,023.8,022.8,000.0,032.4,025.5,09.4,0000.0,0002.02,0007.71,0001.15
2024-03-02 04:49:00,SystemResetWarning,0822.0,5.00,000.00,023.8,022.8,000.0,032.3,025.5,09.4,0000.0,0002.05,0008.23,0001.15
2024-03-02 04:50:00,SystemResetWarning,0822.0,5.01,000.00,023.8,022.8,000.0,032.3,025.5,09.4,0000.0,0002.04,0008.16,0001.15
2024-03-02 04:51:00,SystemResetWarning,0822.0,5.00,000.00,023.8,022.8,000.0,032.3,025.5,09.3,0000.0,0002.02,0008.12,0001.14
2024-03-02 04:52:00,SystemResetWarning,0821.8,5.01,000.00,023.8,022.7,000.0,032.3,025.5,09.3,0000.0,0002.05,0008.04,0001.14
2024-03-02 04:53:00,SystemResetWarning,0822.0,5.00,000.00,023.7,022.7,000.0,032.3,025.5,09.3,0000.0,0002.13,0008.18,0001.15
2024-03-02 04:54:00,SystemResetWarning,0821.7,5.00,000.00,023.7,022.7,000.0,032.3,025.5,09.2,0000.0,0002.09,0008.12,0001.14
2024-03-02 04:55:00,SystemResetWarning,0821.5,5.00,000.00,023.7,022.7,000.0,032.3,025.5,09.3,0000.0,0002.07,0007.49,0001.12
2024-03-02 04:56:00,SystemResetWarning,0821.4,5.00,000.00,023.7,022.7,000.0,032.3,025.5,09.3,0000.0,0002.05,0006.92,0001.12
2024-03-02 04:57:00,SystemResetWarning,0821.4,5.00,000.00,023.7,022.7,000.0,032.2,025.5,09.3,0000.0,0002.03,0006.93,0001.12
2024-03-02 04:58:00,SystemResetWarning,0821.4,4.98,000.00,023.7,022.7,000.0,032.2,025.4,09.3,0000.0,0002.06,0006.36,0001.13
2024-03-02 04:59:00,SystemResetWarning,0821.4,5.00,000.00,023.7,022.7,000.0,032.2,025.4,09.3,0000.0,0002.08,0005.39,0001.14
